User: anonymous   Login
Location: Unspecified
(0.0000°N, 0.0000°E)
Time: 11:23:52
(UTC+01:00)
Language:

ARIANE 5 R/B - Orbit

View from above orbital plane
View from above orbital plane
View from above satellite
View from above satellite

Ground track
Ground track

The orbit data is extracted from the following two-line orbital elements,

1 28787U 05028B   15060.93895036 -.00000032  00000-0  41006-3 0  9992
2 28787 007.4310 359.9086 7164775 287.2145 018.9043 02.26559538 79102
Epoch (UTC): 01 March 2015 22:32:05
Eccentricity: 0.7164775
inclination: 7.4310°
perigee height: 564 km
apogee height: 35654 km
right ascension of ascending node: 359.9086°
argument of perigee: 287.2145°
revolutions per day: 2.26559538
mean anomaly at epoch: 18.9043°
orbit number at epoch: 7910

The dashed part of the orbit path shows where the satellite is in the earth's shadow,  

DLR